Flag for Germany Weather past 2 weeks in Düsseldorf, North Rhine-Westphalia, Germany

Now
39 °F

Passing clouds.


Feels Like: 32 °F
Forecast: 34 / 39 °F
Wind: 12 mph from Southwest

Location: Duesseldorf

Current Time: Dec 25, 2014 at 2:43:20 AM

Latest Report: Dec 25, 2014 at 2:20 AM


Visibility: N/A

Pressure: 30.12 "Hg

Humidity: 81%

Dew point: 34 °F

Location of DüsseldorfLocation

Historic Weather in Düsseldorf — Graph

°F

Düsseldorf temperature yesterday

Maximum temperature yesterday: 50 °F (at 12:20 AM)
Minimum temperature yesterday: 41 °F (at 11:20 PM)
Average temperature yesterday: 47 °F

Past Weeks' High & Low Weather Summary

 TemperatureHumidityPressure
High55 °F (Dec 18, 4:50 PM)100% (Dec 14, 3:50 AM)30.39 "Hg (Dec 14, 3:50 AM)
Low30 °F (Dec 14, 5:50 AM)66% (Dec 10, 4:50 AM)29.42 "Hg (Dec 12, 12:50 PM)
Average45 °F86%29.95 "Hg
* Reported Dec 10 1:20 AM — Dec 25 1:50 AM, Düsseldorf, Weather by CustomWeather, © 2014

Note: Actual official high and low records may vary slightly from our data, if they occured in-between our weather recording intervals... More about our weather records

Advertising

Düsseldorf weather history for previous 24 hours

 ConditionsComfort  
Time TempWeatherWind HumidityBarometerVisibility
1:50 AM
Dec 25
41 °FPassing clouds.10 mph76%30.12 "HgN/A
1:20 AM41 °FPassing clouds.13 mph81%30.12 "HgN/A
12:50 AM41 °FPassing clouds.12 mph87%30.12 "HgN/A
12:20 AM41 °FPassing clouds.9 mph81%30.12 "HgN/A
11:50 PM
Dec 24
41 °FClear.9 mph81%30.12 "Hg10 mi
11:20 PM41 °FClear.10 mph81%30.12 "Hg10 mi
10:50 PM43 °FPassing clouds.9 mph81%30.12 "HgN/A
10:20 PM43 °FPartly cloudy.10 mph87%30.09 "HgN/A
9:50 PM45 °FPartly cloudy.10 mph87%30.09 "HgN/A
9:20 PM45 °FPartly cloudy.8 mph87%30.09 "HgN/A
8:50 PM45 °FPassing clouds.9 mph87%30.07 "HgN/A
8:20 PM45 °FPartly cloudy.10 mph87%30.07 "HgN/A
7:50 PM45 °FLight rain. Passing clouds.9 mph93%30.04 "HgN/A
7:20 PM45 °FLight rain. Passing clouds.9 mph93%30.04 "HgN/A
6:50 PM45 °FLight rain. Partly cloudy.7 mph93%30.01 "HgN/A
6:20 PM45 °FLight rain. Passing clouds.6 mph93%30.01 "HgN/A
5:50 PM45 °FLight rain. Passing clouds.6 mph93%30.01 "HgN/A
5:20 PM45 °FLight rain. Passing clouds.6 mph93%30.01 "HgN/A
4:50 PM45 °FPartly cloudy.10 mph93%29.98 "Hg4 mi
4:20 PM48 °FDrizzle. Broken clouds.13 mph94%29.98 "Hg1 mi
3:50 PM48 °FDrizzle. Partly sunny.15 mph94%29.95 "Hg2 mi
3:20 PM48 °FDrizzle. Broken clouds.17 mph94%29.95 "Hg4 mi
2:50 PM48 °FDrizzle. Partly sunny.17 mph94%29.95 "Hg4 mi
2:20 PM48 °FDrizzle. Partly sunny.18 mph94%29.95 "Hg3 mi
1:50 PM48 °FDrizzle. Broken clouds.20 mph94%29.95 "Hg3 mi
1:20 PM48 °FDrizzle. Partly sunny.20 mph94%29.95 "Hg3 mi
12:50 PM48 °FDrizzle. Partly sunny.23 mph94%29.95 "Hg3 mi
12:20 PM48 °FDrizzle. Broken clouds.22 mph87%29.98 "Hg5 mi
11:50 AM48 °FDrizzle. Partly sunny.21 mph87%29.98 "Hg6 mi
11:20 AM48 °FLight rain. Partly sunny.21 mph87%29.98 "HgN/A
10:50 AM46 °FLight rain. Broken clouds.21 mph87%29.98 "HgN/A
10:20 AM46 °FBroken clouds.22 mph87%29.98 "HgN/A
9:20 AM48 °FLight rain. Partly sunny.23 mph76%29.98 "HgN/A
8:50 AM48 °FLight rain. Partly sunny.21 mph76%29.98 "HgN/A
8:20 AM46 °FPassing clouds.20 mph82%29.98 "HgN/A
7:50 AM48 °FPassing clouds.20 mph76%29.98 "HgN/A
7:20 AM48 °FPassing clouds.18 mph76%29.98 "HgN/A
6:50 AM48 °FPassing clouds.18 mph71%29.98 "HgN/A
6:20 AM48 °FPassing clouds.18 mph71%29.98 "HgN/A
5:50 AM48 °FPassing clouds.17 mph71%29.98 "HgN/A
5:20 AM48 °FPassing clouds.20 mph71%29.98 "HgN/A
4:50 AM48 °FPassing clouds.18 mph71%29.98 "HgN/A
4:20 AM48 °FPassing clouds.18 mph71%29.98 "HgN/A
3:50 AM48 °FPassing clouds.20 mph71%30.01 "HgN/A
3:20 AM48 °FPassing clouds.20 mph71%30.01 "HgN/A
2:50 AM48 °FPassing clouds.20 mph71%30.04 "HgN/A
2:20 AM48 °FPassing clouds.17 mph71%30.04 "HgN/A
Weather by CustomWeather, © 2014

See weather overviewHow to use our weather pages